PAB260 LFPG-EGLL

Flight info

Callsign PAB260
Flight time 0h 57m
Altitude 16000
Route BOV DCT SFD DCT OCK DCT LON
Aircraft CONI/M-SDFY/C

Departure

Time 2026-05-06 22:48
Airport Charles de Gaulle International Airport (LFPG)

Arrival

Time 2026-05-06 23:46
Airport London Heathrow Airport (EGLL)
Time Latitude Longitude Altitude Speed Heading
2026-05-06 22:29 49.00023 2.56413 402 ft 0 kts 175°
2026-05-06 22:38 49.00037 2.56411 402 ft 3 kts 174°
2026-05-06 22:38 49.00056 2.56407 402 ft 3 kts 171°
2026-05-06 22:38 49.00076 2.56401 402 ft 3 kts 164°
2026-05-06 22:39 49.00094 2.56389 402 ft 3 kts 141°
2026-05-06 22:39 49.00101 2.56369 402 ft 1 kts 86°
2026-05-06 22:39 49.00101 2.56361 402 ft 0 kts 85°
2026-05-06 22:40 49.00103 2.56396 402 ft 10 kts 85°
2026-05-06 22:40 49.00107 2.56508 402 ft 8 kts 100°
2026-05-06 22:41 49.00077 2.56555 402 ft 0 kts 167°
2026-05-06 22:41 49.00069 2.56557 402 ft 4 kts 172°
2026-05-06 22:41 48.99999 2.56572 402 ft 13 kts 174°
2026-05-06 22:42 48.99936 2.56574 402 ft 11 kts 180°
2026-05-06 22:42 48.99856 2.56611 402 ft 14 kts 127°
2026-05-06 22:42 48.99842 2.56800 402 ft 25 kts 86°
2026-05-06 22:42 48.99862 2.57090 402 ft 24 kts 86°
2026-05-06 22:43 48.99867 2.57274 402 ft 11 kts 87°
2026-05-06 22:43 48.99869 2.57330 402 ft 0 kts 84°
2026-05-06 22:43 48.99872 2.57377 402 ft 19 kts 84°
2026-05-06 22:43 48.99895 2.57675 402 ft 34 kts 83°
2026-05-06 22:44 48.99910 2.58025 402 ft 30 kts 84°
2026-05-06 22:44 48.99928 2.58328 402 ft 26 kts 87°
2026-05-06 22:44 48.99942 2.58596 402 ft 24 kts 83°
2026-05-06 22:44 48.99952 2.58833 402 ft 22 kts 84°
2026-05-06 22:45 48.99967 2.59072 402 ft 23 kts 85°
2026-05-06 22:45 48.99980 2.59322 402 ft 24 kts 84°
2026-05-06 22:45 48.99992 2.59582 402 ft 25 kts 85°
2026-05-06 22:45 49.00007 2.59834 402 ft 24 kts 84°
2026-05-06 22:46 49.00022 2.60077 402 ft 18 kts 85°
2026-05-06 22:46 49.00012 2.60191 402 ft 5 kts 121°
2026-05-06 22:46 48.99973 2.60230 402 ft 12 kts 168°
2026-05-06 22:46 48.99877 2.60178 402 ft 17 kts 221°
2026-05-06 22:47 48.99831 2.60096 402 ft 8 kts 256°
2026-05-06 22:47 48.99826 2.60053 402 ft 0 kts 263°
2026-05-06 22:47 48.99807 2.59705 402 ft 73 kts 266°
2026-05-06 22:48 48.99750 2.58680 448 ft 112 kts 266°
2026-05-06 22:48 48.99673 2.57432 683 ft 124 kts 265°
2026-05-06 22:48 48.99585 2.56115 1041 ft 126 kts 266°
2026-05-06 22:48 48.99620 2.54800 1368 ft 129 kts 284°
2026-05-06 22:49 49.00068 2.53485 1570 ft 152 kts 310°
2026-05-06 22:49 49.00954 2.52518 1800 ft 165 kts 337°
2026-05-06 22:49 49.02065 2.52142 2175 ft 152 kts 350°
2026-05-06 22:49 49.03083 2.51867 2510 ft 150 kts 346°
2026-05-06 22:50 49.04104 2.51364 2764 ft 158 kts 339°
2026-05-06 22:50 49.05132 2.50666 3023 ft 164 kts 335°
2026-05-06 22:50 49.06144 2.49868 3274 ft 168 kts 333°
2026-05-06 22:50 49.07176 2.48995 3529 ft 170 kts 332°
2026-05-06 22:51 49.08209 2.48088 3781 ft 172 kts 331°
2026-05-06 22:51 49.09243 2.47161 4033 ft 173 kts 330°
2026-05-06 22:51 49.10279 2.46220 4282 ft 173 kts 330°
2026-05-06 22:51 49.11314 2.45274 4532 ft 173 kts 330°
2026-05-06 22:52 49.12347 2.44329 4781 ft 172 kts 330°
2026-05-06 22:52 49.13375 2.43387 5031 ft 172 kts 330°
2026-05-06 22:52 49.14385 2.42459 5279 ft 171 kts 330°
2026-05-06 22:52 49.15403 2.41522 5528 ft 170 kts 330°
2026-05-06 22:53 49.16415 2.40591 5777 ft 169 kts 330°
2026-05-06 22:53 49.17081 2.39977 5942 ft 169 kts 330°
2026-05-06 22:53 49.18420 2.38742 6275 ft 167 kts 330°
2026-05-06 22:53 49.19078 2.38135 6440 ft 166 kts 330°
2026-05-06 22:54 49.20068 2.37221 6689 ft 165 kts 330°
2026-05-06 22:54 49.21050 2.36314 6938 ft 164 kts 330°
2026-05-06 22:54 49.22342 2.35118 7268 ft 163 kts 330°
2026-05-06 22:54 49.22996 2.34514 7436 ft 162 kts 329°
2026-05-06 22:55 49.23965 2.33616 7688 ft 165 kts 330°
2026-05-06 22:55 49.24952 2.32704 7941 ft 170 kts 329°
2026-05-06 22:55 49.25977 2.31756 8195 ft 174 kts 329°
2026-05-06 22:55 49.27022 2.30788 8449 ft 177 kts 329°
2026-05-06 22:56 49.28080 2.29807 8701 ft 178 kts 329°
2026-05-06 22:56 49.29144 2.28819 8952 ft 180 kts 329°
2026-05-06 22:56 49.30216 2.27825 9203 ft 180 kts 329°
2026-05-06 22:56 49.31290 2.26827 9454 ft 180 kts 329°
2026-05-06 22:57 49.32363 2.25830 9704 ft 180 kts 329°
2026-05-06 22:57 49.33438 2.24831 9955 ft 180 kts 328°
2026-05-06 22:57 49.34504 2.23839 10204 ft 179 kts 328°
2026-05-06 22:57 49.35565 2.22852 10453 ft 178 kts 328°
2026-05-06 22:58 49.36622 2.21868 10702 ft 177 kts 328°
2026-05-06 22:58 49.37656 2.20904 10948 ft 176 kts 328°
2026-05-06 22:58 49.38701 2.19930 11197 ft 174 kts 328°
2026-05-06 22:58 49.39734 2.18966 11446 ft 173 kts 328°
2026-05-06 22:59 49.40759 2.18010 11695 ft 171 kts 328°
2026-05-06 22:59 49.41775 2.17062 11943 ft 170 kts 328°
2026-05-06 22:59 49.42778 2.16114 12191 ft 169 kts 325°
2026-05-06 22:59 49.43695 2.15026 12439 ft 169 kts 319°
2026-05-06 23:00 49.44580 2.13823 12690 ft 169 kts 317°
2026-05-06 23:00 49.45447 2.12593 12941 ft 169 kts 316°
2026-05-06 23:00 49.46308 2.11349 13178 ft 170 kts 316°
2026-05-06 23:00 49.47187 2.10065 13241 ft 180 kts 316°
2026-05-06 23:01 49.48116 2.08702 13398 ft 187 kts 316°
2026-05-06 23:01 49.49061 2.07314 13576 ft 192 kts 316°
2026-05-06 23:01 49.50039 2.05874 13754 ft 196 kts 316°
2026-05-06 23:01 49.51033 2.04407 13930 ft 199 kts 316°
2026-05-06 23:02 49.52040 2.02920 14107 ft 201 kts 316°
2026-05-06 23:02 49.53055 2.01417 14283 ft 203 kts 316°
2026-05-06 23:02 49.54076 1.99907 14459 ft 204 kts 316°
2026-05-06 23:02 49.55085 1.98412 14633 ft 204 kts 316°
2026-05-06 23:03 49.56110 1.96893 14808 ft 205 kts 316°
2026-05-06 23:03 49.57135 1.95372 14984 ft 205 kts 316°
2026-05-06 23:03 49.58162 1.93847 15159 ft 205 kts 316°
2026-05-06 23:03 49.59187 1.92325 15333 ft 205 kts 316°
2026-05-06 23:04 49.60210 1.90803 15508 ft 204 kts 316°
2026-05-06 23:04 49.61234 1.89280 15683 ft 204 kts 316°
2026-05-06 23:04 49.62258 1.87757 15845 ft 204 kts 316°
2026-05-06 23:04 49.63159 1.86413 15946 ft 209 kts 316°
2026-05-06 23:05 49.64207 1.84852 15993 ft 216 kts 316°
2026-05-06 23:05 49.65306 1.83214 16000 ft 222 kts 316°
2026-05-06 23:05 49.66434 1.81530 16000 ft 228 kts 316°
2026-05-06 23:05 49.67587 1.79808 16000 ft 233 kts 316°
2026-05-06 23:06 49.68765 1.78050 16000 ft 237 kts 316°
2026-05-06 23:06 49.69960 1.76264 16001 ft 240 kts 316°
2026-05-06 23:06 49.71150 1.74483 16001 ft 242 kts 316°
2026-05-06 23:06 49.72363 1.72667 16001 ft 243 kts 316°
2026-05-06 23:07 49.73582 1.70839 16002 ft 245 kts 316°
2026-05-06 23:07 49.74809 1.68999 16002 ft 246 kts 316°
2026-05-06 23:07 49.76045 1.67145 16003 ft 248 kts 315°
2026-05-06 23:07 49.77293 1.65270 16004 ft 251 kts 315°
2026-05-06 23:08 49.78558 1.63370 16004 ft 254 kts 315°
2026-05-06 23:08 49.79818 1.61474 16006 ft 256 kts 315°
2026-05-06 23:08 49.81104 1.59539 16009 ft 258 kts 315°
2026-05-06 23:08 49.82398 1.57590 16011 ft 260 kts 315°
2026-05-06 23:09 49.83704 1.55620 16011 ft 262 kts 315°
2026-05-06 23:09 49.85018 1.53639 16012 ft 264 kts 315°
2026-05-06 23:09 49.86323 1.51668 16013 ft 266 kts 315°
2026-05-06 23:09 49.87653 1.49655 16013 ft 267 kts 315°
2026-05-06 23:10 49.88990 1.47633 16014 ft 269 kts 315°
2026-05-06 23:10 49.90330 1.45604 16014 ft 270 kts 315°
2026-05-06 23:10 49.91678 1.43563 16015 ft 271 kts 315°
2026-05-06 23:10 49.93030 1.41513 16015 ft 272 kts 315°
2026-05-06 23:11 49.94383 1.39460 16016 ft 273 kts 315°
2026-05-06 23:11 49.95726 1.37420 16016 ft 273 kts 315°
2026-05-06 23:11 49.97089 1.35348 16016 ft 274 kts 315°
2026-05-06 23:11 49.98456 1.33269 16017 ft 275 kts 315°
2026-05-06 23:12 49.99480 1.31711 16017 ft 275 kts 315°
2026-05-06 23:12 50.00627 1.29963 16018 ft 275 kts 315°
2026-05-06 23:12 50.01996 1.27875 16018 ft 276 kts 315°
2026-05-06 23:12 50.03352 1.25806 16018 ft 276 kts 315°
2026-05-06 23:13 50.04728 1.23705 16019 ft 277 kts 315°
2026-05-06 23:13 50.06104 1.21602 16019 ft 277 kts 315°
2026-05-06 23:13 50.07480 1.19496 16023 ft 277 kts 315°
2026-05-06 23:13 50.08856 1.17389 16025 ft 278 kts 315°
2026-05-06 23:14 50.10236 1.15274 16027 ft 278 kts 315°
2026-05-06 23:14 50.11613 1.13161 16029 ft 278 kts 315°
2026-05-06 23:14 50.12993 1.11042 16030 ft 278 kts 315°
2026-05-06 23:14 50.14374 1.08920 16030 ft 279 kts 315°
2026-05-06 23:15 50.15755 1.06797 16030 ft 279 kts 315°
2026-05-06 23:15 50.17120 1.04695 16030 ft 279 kts 315°
2026-05-06 23:15 50.18503 1.02564 16030 ft 279 kts 315°
2026-05-06 23:15 50.19886 1.00432 16031 ft 279 kts 315°
2026-05-06 23:16 50.21268 0.98299 16031 ft 280 kts 315°
2026-05-06 23:16 50.22651 0.96163 16031 ft 280 kts 314°
2026-05-06 23:16 50.24042 0.94038 16031 ft 280 kts 315°
2026-05-06 23:16 50.25462 0.91949 16032 ft 280 kts 318°
2026-05-06 23:17 50.26999 0.90066 16036 ft 281 kts 323°
2026-05-06 23:17 50.28617 0.88351 16039 ft 281 kts 326°
2026-05-06 23:17 50.30280 0.86739 16040 ft 281 kts 328°
2026-05-06 23:17 50.31969 0.85181 16040 ft 281 kts 329°
2026-05-06 23:18 50.33669 0.83643 16040 ft 282 kts 329°
2026-05-06 23:18 50.35361 0.82097 16041 ft 282 kts 328°
2026-05-06 23:18 50.37021 0.80534 16036 ft 282 kts 327°
2026-05-06 23:18 50.38681 0.78887 16033 ft 282 kts 326°
2026-05-06 23:19 50.40306 0.77163 16032 ft 282 kts 324°
2026-05-06 23:19 50.41889 0.75350 16032 ft 282 kts 322°
2026-05-06 23:19 50.43430 0.73440 16033 ft 281 kts 320°
2026-05-06 23:19 50.44922 0.71441 16033 ft 281 kts 317°
2026-05-06 23:20 50.46346 0.69398 16032 ft 281 kts 316°
2026-05-06 23:20 50.47754 0.67256 16032 ft 281 kts 314°
2026-05-06 23:20 50.49130 0.65071 16032 ft 281 kts 313°
2026-05-06 23:20 50.50486 0.62861 16032 ft 281 kts 313°
2026-05-06 23:21 50.51837 0.60642 16031 ft 281 kts 313°
2026-05-06 23:21 50.53196 0.58433 16030 ft 281 kts 313°
2026-05-06 23:21 50.54576 0.56249 16029 ft 281 kts 314°
2026-05-06 23:21 50.55982 0.54109 16029 ft 281 kts 316°
2026-05-06 23:22 50.57402 0.52050 16028 ft 281 kts 317°
2026-05-06 23:22 50.58885 0.50010 15889 ft 287 kts 319°
2026-05-06 23:22 50.60443 0.47973 15644 ft 295 kts 320°
2026-05-06 23:22 50.62067 0.45948 15394 ft 297 kts 321°
2026-05-06 23:23 50.63708 0.43979 15144 ft 296 kts 322°
2026-05-06 23:23 50.65357 0.42052 14893 ft 294 kts 323°
2026-05-06 23:23 50.67010 0.40143 14642 ft 293 kts 323°
2026-05-06 23:23 50.68631 0.38264 14395 ft 292 kts 322°
2026-05-06 23:24 50.70261 0.36340 14144 ft 292 kts 322°
2026-05-06 23:24 50.71866 0.34387 13893 ft 291 kts 321°
2026-05-06 23:24 50.73450 0.32390 13643 ft 291 kts 320°
2026-05-06 23:24 50.75011 0.30346 13392 ft 291 kts 319°
2026-05-06 23:25 50.76547 0.28263 13142 ft 291 kts 318°
2026-05-06 23:25 50.78064 0.26145 12891 ft 290 kts 317°
2026-05-06 23:25 50.79559 0.24016 12641 ft 289 kts 317°
2026-05-06 23:25 50.81046 0.21879 12390 ft 288 kts 317°
2026-05-06 23:26 50.82528 0.19754 12139 ft 286 kts 317°
2026-05-06 23:26 50.84006 0.17662 11889 ft 282 kts 318°
2026-05-06 23:26 50.85460 0.15644 11638 ft 274 kts 319°
2026-05-06 23:26 50.86889 0.13705 11387 ft 269 kts 319°
2026-05-06 23:27 50.88319 0.11808 11137 ft 267 kts 320°
2026-05-06 23:27 50.89732 0.09967 10889 ft 266 kts 321°
2026-05-06 23:27 50.91164 0.08124 10639 ft 264 kts 321°
2026-05-06 23:27 50.92596 0.06290 10388 ft 264 kts 321°
2026-05-06 23:28 50.94025 0.04455 10155 ft 264 kts 321°
2026-05-06 23:28 50.95440 0.02621 9979 ft 262 kts 321°
2026-05-06 23:28 50.96838 0.00785 9804 ft 260 kts 320°
2026-05-06 23:28 50.98219 -0.01054 9628 ft 258 kts 320°
2026-05-06 23:29 50.99583 -0.02886 9453 ft 257 kts 320°
2026-05-06 23:29 51.00947 -0.04725 9258 ft 256 kts 319°
2026-05-06 23:29 51.02286 -0.06542 9060 ft 256 kts 319°
2026-05-06 23:29 51.03638 -0.08386 8860 ft 256 kts 319°
2026-05-06 23:30 51.04990 -0.10233 8659 ft 255 kts 319°
2026-05-06 23:30 51.06337 -0.12070 8458 ft 254 kts 319°
2026-05-06 23:30 51.07685 -0.13902 8257 ft 254 kts 320°
2026-05-06 23:30 51.09031 -0.15719 8057 ft 253 kts 320°
2026-05-06 23:31 51.10362 -0.17505 7859 ft 253 kts 320°
2026-05-06 23:31 51.11714 -0.19312 7658 ft 253 kts 320°
2026-05-06 23:31 51.13066 -0.21120 7457 ft 254 kts 320°
2026-05-06 23:31 51.14308 -0.22786 7274 ft 256 kts 320°
2026-05-06 23:32 51.15408 -0.24269 7146 ft 257 kts 320°
2026-05-06 23:32 51.16771 -0.26111 7040 ft 256 kts 320°
2026-05-06 23:32 51.16935 -0.26333 7033 ft 255 kts 320°
2026-05-06 23:33 51.17503 -0.27102 7016 ft 254 kts 320°
2026-05-06 23:33 51.18841 -0.28915 7001 ft 251 kts 320°
2026-05-06 23:33 51.20054 -0.30555 6998 ft 252 kts 320°
2026-05-06 23:33 51.21393 -0.32363 7000 ft 251 kts 320°
2026-05-06 23:34 51.22722 -0.34159 7000 ft 250 kts 320°
2026-05-06 23:34 51.24049 -0.35960 7000 ft 250 kts 320°
2026-05-06 23:34 51.25367 -0.37761 7000 ft 249 kts 320°
2026-05-06 23:34 51.26669 -0.39543 7000 ft 249 kts 320°
2026-05-06 23:35 51.27965 -0.41319 6999 ft 241 kts 320°
2026-05-06 23:35 51.29194 -0.43086 6997 ft 234 kts 313°
2026-05-06 23:35 51.30139 -0.45178 6946 ft 231 kts 302°
2026-05-06 23:35 51.30929 -0.47424 6821 ft 232 kts 299°
2026-05-06 23:36 51.31698 -0.49690 6694 ft 232 kts 295°
2026-05-06 23:36 51.32048 -0.52198 6570 ft 233 kts 275°
2026-05-06 23:36 51.32200 -0.54746 6444 ft 232 kts 284°
2026-05-06 23:36 51.32843 -0.57083 6266 ft 231 kts 301°
2026-05-06 23:37 51.33584 -0.59352 6110 ft 229 kts 294°
2026-05-06 23:37 51.34061 -0.61778 6027 ft 228 kts 285°
2026-05-06 23:37 51.34406 -0.64241 6005 ft 225 kts 284°
2026-05-06 23:37 51.34793 -0.66657 6001 ft 222 kts 287°
2026-05-06 23:38 51.35252 -0.68995 6000 ft 219 kts 290°
2026-05-06 23:38 51.35745 -0.71290 6000 ft 217 kts 290°
2026-05-06 23:38 51.36241 -0.73558 6000 ft 215 kts 290°
2026-05-06 23:38 51.36817 -0.75750 5996 ft 213 kts 303°
2026-05-06 23:39 51.37862 -0.77447 5779 ft 219 kts 328°
2026-05-06 23:39 51.39305 -0.78292 5503 ft 224 kts 350°
2026-05-06 23:39 51.40852 -0.78550 5160 ft 228 kts 357°
2026-05-06 23:39 51.42450 -0.78643 4810 ft 231 kts 359°
2026-05-06 23:40 51.44068 -0.78694 4387 ft 233 kts 359°
2026-05-06 23:40 51.45672 -0.78411 3946 ft 232 kts 18°
2026-05-06 23:40 51.47038 -0.77142 3656 ft 223 kts 43°
2026-05-06 23:40 51.47877 -0.75144 3461 ft 212 kts 68°
2026-05-06 23:41 51.48052 -0.72908 3200 ft 197 kts 95°
2026-05-06 23:41 51.47620 -0.70889 2912 ft 187 kts 115°
2026-05-06 23:41 51.47016 -0.69130 2668 ft 167 kts 116°
2026-05-06 23:41 51.46609 -0.67660 2497 ft 130 kts 107°
2026-05-06 23:42 51.46375 -0.66303 2299 ft 119 kts 99°
2026-05-06 23:42 51.46264 -0.65058 2109 ft 109 kts 92°
2026-05-06 23:42 51.46239 -0.63824 1954 ft 112 kts 87°
2026-05-06 23:42 51.46255 -0.62992 1871 ft 113 kts 84°
2026-05-06 23:43 51.46312 -0.61729 1746 ft 114 kts 83°
2026-05-06 23:43 51.46404 -0.60038 1570 ft 116 kts 83°
2026-05-06 23:43 51.46441 -0.59176 1471 ft 117 kts 84°
2026-05-06 23:43 51.46475 -0.57850 1315 ft 120 kts 86°
2026-05-06 23:44 51.46483 -0.56499 1154 ft 122 kts 88°
2026-05-06 23:44 51.46476 -0.55132 987 ft 123 kts 89°
2026-05-06 23:44 51.46467 -0.53779 817 ft 120 kts 89°
2026-05-06 23:44 51.46462 -0.52450 654 ft 118 kts 88°
2026-05-06 23:45 51.46462 -0.51144 497 ft 117 kts 88°
2026-05-06 23:45 51.46472 -0.49860 337 ft 117 kts 87°
2026-05-06 23:45 51.46484 -0.48556 185 ft 116 kts 87°
2026-05-06 23:45 51.46484 -0.47307 104 ft 100 kts 88°
2026-05-06 23:46 51.46487 -0.46349 94 ft 71 kts 89°
2026-05-06 23:46 51.46507 -0.45909 93 ft 22 kts 65°
2026-05-06 23:46 51.46557 -0.45737 93 ft 15 kts 66°
2026-05-06 23:46 51.46612 -0.45662 93 ft 8 kts
2026-05-06 23:47 51.46660 -0.45702 93 ft 17 kts 298°
2026-05-06 23:47 51.46659 -0.45878 93 ft 19 kts 273°
2026-05-06 23:47 51.46660 -0.46074 93 ft 16 kts 269°
2026-05-06 23:47 51.46661 -0.46288 93 ft 20 kts 271°
2026-05-06 23:48 51.46660 -0.46507 93 ft 20 kts 273°
2026-05-06 23:48 51.46656 -0.46713 93 ft 18 kts 268°
2026-05-06 23:48 51.46691 -0.46841 93 ft 12 kts 322°
2026-05-06 23:48 51.46755 -0.46931 93 ft 12 kts 312°
2026-05-06 23:49 51.46802 -0.46993 93 ft 6 kts 350°
2026-05-06 23:49 51.46831 -0.46992 93 ft 4 kts
2026-05-06 23:49 51.46848 -0.46992 93 ft 0 kts